FW2543 Weather Reports


Display with metric or nautical units.
time (UTC)temp
F
wind
direction
speed
MPH
gust
MPH
rain 1hr
in
rain 24hr
in
rain mn
in
humidity
%
barometer
mb
20260506094329 53 296 4.0 9.0 0.00 3.85 0.00 1 1018.8
20260506093825 53 333 2.0 7.0 0.00 3.85 0.00 1 1018.8
20260506093319 53 0 2.0 11.0 0.00 3.86 0.00 1 1018.8
20260506092818 53 296 4.0 11.0 0.00 3.86 0.00 1 1018.8
20260506092313 54 282 3.0 10.0 0.00 3.86 0.00 1 1018.7
20260506091809 54 254 4.0 12.0 0.00 3.86 0.00 1 1018.6
20260506091307 53 272 4.0 12.0 0.00 3.86 0.00 1 1018.6
20260506090804 54 0 3.0 12.0 0.00 3.86 0.00 1 1018.6
20260506090304 54 0 4.0 12.0 0.00 3.86 0.00 1 1018.7
20260506090134 54 338 3.0 13.0 0.00 3.86 0.00 1 1018.6
20260506090129 54 337 5.0 12.0 0.00 3.86 0.00 1 1018.6
20260506084803 54 0 4.0 13.0 0.00 3.86 0.00 1 1018.7
20260506084556 54 0 4.0 14.0 0.00 3.86 0.00 1 1018.7
20260506084047 54 265 4.0 14.0 0.00 3.86 0.00 1 1018.7
20260506083305 54 4 4.0 11.0 0.00 3.86 0.00 1 1018.7
20260506082804 54 285 4.0 11.0 0.00 3.86 0.00 1 1018.7
20260506082305 54 286 4.0 11.0 0.00 3.87 0.00 1 1018.8
20260506081803 54 18 4.0 11.0 0.00 3.87 0.00 1 1018.8
20260506081303 54 241 3.0 10.0 0.00 3.87 0.00 1 1018.8
20260506080805 54 296 2.0 11.0 0.00 3.88 0.00 1 1018.9
20260506080303 54 0 2.0 12.0 0.00 3.88 0.00 1 1018.8
20260506073305 53 207 4.0 13.0 0.00 3.90 0.00 1 1018.5
20260506072804 53 1 5.0 13.0 0.00 3.90 0.00 1 1018.6
20260506072551 53 265 4.0 13.0 0.00 3.90 0.00 1 1018.5
20260506071804 53 321 5.0 13.0 0.00 3.91 0.00 1 1018.5
20260506071553 54 278 7.0 13.0 0.00 3.91 0.00 1 1018.4
20260506070804 54 97 1.0 13.0 0.00 3.91 0.00 1 1018.5
20260506070235 54 0 5.0 12.0 0.00 3.91 0.00 1 1018.4
20260506062229 54 282 6.0 12.0 0.00 3.91 3.91 1 1018.1
20260506061729 54 121 3.0 13.0 0.00 3.91 3.91 1 1018.1
20260506061229 54 327 3.0 16.0 0.00 3.91 3.91 1 1018.1
20260506060730 54 278 3.0 16.0 0.00 3.92 3.91 1 1018.1
20260506060229 54 0 2.0 13.0 0.00 3.92 3.91 1 1018.0
20260506051228 55 0 4.0 14.0 0.00 3.93 3.91 1 1017.8
20260506050728 55 320 7.0 16.0 0.00 3.94 3.91 1 1017.8
20260506050227 55 264 6.0 16.0 0.00 3.94 3.91 1 1017.8
20260506044727 55 18 4.0 15.0 0.00 3.95 3.91 1 1017.7
20260506044517 55 31 3.0 15.0 0.00 3.95 3.91 1 1017.6
20260506043728 55 282 4.0 17.0 0.00 3.95 3.91 1 1017.6
20260506043227 55 293 5.0 17.0 0.00 3.95 3.91 1 1017.6
20260506042726 55 303 5.0 14.0 0.00 3.95 3.91 1 1017.5
20260506042228 54 23 4.0 16.0 0.00 3.95 3.91 1 1017.4
20260506042014 54 14 5.0 16.0 0.00 3.95 3.91 1 1017.3
20260506041226 55 327 5.0 14.0 0.00 3.95 3.91 1 1017.3
20260506040726 55 0 6.0 17.0 0.00 3.95 3.91 1 1017.1
20260506040513 55 0 3.0 17.0 0.00 3.95 3.91 1 1017.0
20260506035726 55 183 4.0 13.0 0.00 3.95 3.91 1 1016.9
20260506035310 55 259 4.0 15.0 0.00 3.95 3.91 1 1016.8
20260506035257 55 13 5.0 15.0 0.00 3.95 3.91 1 1016.9
20260506034226 55 289 5.0 17.0 0.00 3.95 3.91 1 1016.8
20260506033727 55 0 5.0 17.0 0.00 3.95 3.91 1 1016.6
20260506033226 55 238 7.0 19.0 0.00 3.95 3.91 1 1016.6
20260506032725 55 142 10.0 19.0 0.00 3.95 3.91 1 1016.6
20260506032226 55 231 11.0 18.0 0.00 3.95 3.91 1 1016.5
20260506031726 55 24 4.0 16.0 0.00 3.95 3.91 1 1016.5
20260506031229 55 247 5.0 16.0 0.00 3.95 3.91 1 1016.4
20260506030726 55 274 5.0 16.0 0.00 3.95 3.91 1 1016.4
20260506030226 55 264 7.0 19.0 0.00 3.95 3.91 1 1016.3
20260506025726 55 0 6.0 20.0 0.00 3.95 3.91 1 1016.3
20260506025226 56 320 5.0 20.0 0.00 3.95 3.91 1 1016.1
20260506024726 56 197 6.0 21.0 0.00 3.95 3.91 1 1016.2
20260506024512 56 130 5.0 21.0 0.00 3.95 3.91 1 1016.2
20260506023724 56 264 9.0 19.0 0.00 3.95 3.91 1 1016.2
20260506023301 56 258 9.0 24.0 0.00 3.95 3.91 1 1016.1
20260506023248 56 250 6.0 24.0 0.00 3.95 3.91 1 1016.1
20260506022225 56 264 5.0 21.0 0.00 3.95 3.91 1 1016.1
20260506021725 56 230 9.0 21.0 0.00 3.95 3.91 1 1016.0
20260506021511 56 96 5.0 20.0 0.00 3.95 3.91 1 1015.9
20260506020723 56 13 9.0 22.0 0.00 3.95 3.91 1 1015.8
20260506020225 56 250 10.0 22.0 0.00 3.95 3.91 1 1015.9
20260506015724 57 265 10.0 22.0 0.00 3.95 3.91 1 1015.9
20260506015223 57 69 5.0 19.0 0.00 3.95 3.91 1 1015.8
20260506014724 57 224 11.0 23.0 0.00 3.95 3.91 1 1015.8
20260506014223 57 209 11.0 23.0 0.00 3.95 3.91 1 1015.8
20260506013724 58 227 9.0 21.0 0.00 3.95 3.91 1 1015.9
20260506013224 58 268 11.0 22.0 0.00 3.95 3.91 1 1015.9
20260506012722 58 238 11.0 24.0 0.00 3.95 3.91 1 1015.9
20260506012301 59 271 11.0 22.0 0.00 3.95 3.91 1 1015.9
20260506012249 58 271 11.0 24.0 0.00 3.95 3.91 1 1015.9
20260506011222 59 269 7.0 22.0 0.00 3.95 3.91 1 1015.9
20260506010724 58 348 11.0 23.0 3.84 3.95 3.91 1 1015.8
20260506010221 58 0 13.0 23.0 3.84 3.95 3.91 1 1015.8
20260506005723 59 289 9.0 22.0 3.84 0.11 3.91 1 1015.8
20260506005223 59 289 9.0 22.0 3.84 0.11 3.91 1 1015.8
20260506004723 59 251 14.0 23.0 3.84 0.11 3.91 1 1015.7
20260506004257 59 97 8.0 18.0 3.84 0.11 3.91 1 1015.7
20260506004246 59 272 15.0 23.0 3.84 0.11 3.91 1 1015.7
20260506003222 58 290 9.0 23.0 3.84 0.11 3.91 1 1015.5
20260506002721 58 266 12.0 27.0 3.84 0.11 3.91 1 1015.6
20260506002222 58 17 13.0 27.0 3.84 0.11 3.91 1 1015.4
20260506001722 58 272 10.0 24.0 3.84 0.11 3.91 1 1015.5
20260506001222 58 189 11.0 22.0 3.84 0.11 3.91 1 1015.5
20260506000719 58 309 10.0 21.0 0.00 0.11 0.07 1 1015.5
20260506000222 58 258 9.0 22.0 0.00 0.11 0.07 1 1015.5
20260505235720 58 303 12.0 24.0 0.00 0.11 0.07 1 1015.5
20260505235506 58 234 8.0 27.0 0.00 0.11 0.07 1 1015.6
20260505234722 57 282 15.0 27.0 0.00 0.11 0.07 1 1015.5
20260505234220 58 257 15.0 24.0 0.00 0.11 0.07 1 1015.6
20260505233720 58 231 16.0 24.0 0.00 0.11 0.07 1 1015.6
20260505233221 58 276 7.0 23.0 0.00 0.11 0.07 1 1015.5
20260505232721 58 243 6.0 23.0 0.00 0.11 0.07 1 1015.6
20260505232504 58 272 9.0 26.0 0.00 0.11 0.07 1 1015.7
20260505231721 58 258 12.0 26.0 0.00 0.11 0.07 1 1015.6
20260505231219 58 272 13.0 27.0 0.00 0.11 0.07 1 1015.7
20260505230720 58 293 12.0 28.0 0.00 0.11 0.07 1 1015.6
20260505230508 59 0 17.0 28.0 0.00 0.11 0.07 1 1015.6
20260505230053 60 264 10.0 23.0 0.00 0.11 0.07 1 1015.5
20260505225751 59 237 13.0 27.0 0.00 0.11 0.07 1 1015.5
20260505224721 60 261 13.0 24.0 0.00 0.11 0.07 1 1015.5
20260505224220 60 309 11.0 24.0 0.00 0.11 0.07 1 1015.5
20260505223718 60 154 12.0 21.0 0.00 0.11 0.07 1 1015.6
20260505223218 59 265 6.0 26.0 0.00 0.11 0.07 1 1015.5
20260505222718 58 269 10.0 26.0 0.00 0.11 0.07 1 1015.6
20260505222217 58 233 10.0 24.0 0.00 0.11 0.07 1 1015.6
20260505221717 57 13 13.0 23.0 0.00 0.11 0.07 1 1015.7
20260505221218 58 353 11.0 21.0 0.00 0.11 0.07 1 1015.8
20260505220717 58 0 6.0 20.0 0.00 0.11 0.07 1 1015.8
20260505220218 58 269 10.0 21.0 0.00 0.11 0.07 1 1015.8
20260505215717 58 290 9.0 22.0 0.00 0.11 0.07 1 1015.9
20260505215217 58 250 7.0 22.0 0.00 0.11 0.07 1 1015.9
20260505214959 58 275 8.0 22.0 0.00 0.11 0.07 1 1015.8
20260505214217 57 296 6.0 22.0 0.00 0.11 0.07 1 1015.9
20260505213716 57 257 14.0 23.0 0.00 0.11 0.07 1 1015.9
20260505213217 57 310 12.0 24.0 0.00 0.11 0.07 1 1015.9
20260505212716 57 266 13.0 24.0 0.00 0.11 0.07 1 1016.0
20260505212216 58 281 9.0 34.0 0.00 0.11 0.07 1 1016.0
20260505211958 58 230 10.0 34.0 0.00 0.11 0.07 1 1016.0
20260505211541 58 207 5.0 22.0 0.00 0.11 0.07 1 1015.9
20260505211535 59 257 10.0 26.0 0.00 0.11 0.07 1 1016.0
20260505210217 58 266 15.0 22.0 0.00 0.11 0.07 1 1015.9
20260505205717 59 275 13.0 22.0 0.00 0.11 0.07 1 1015.9
20260505205215 59 0 7.0 20.0 0.00 0.11 0.07 1 1015.9
20260505204715 59 271 11.0 22.0 0.00 0.11 0.07 1 1015.9
20260505204215 59 269 8.0 22.0 0.00 0.11 0.07 1 1015.9
20260505203716 59 292 8.0 24.0 0.00 0.11 0.07 1 1015.9
20260505203215 59 106 4.0 24.0 0.00 0.11 0.07 1 1015.9
20260505202716 60 290 10.0 23.0 0.00 0.11 0.07 1 1015.9
20260505202217 60 0 8.0 23.0 0.00 0.11 0.07 1 1015.9
20260505201959 61 279 7.0 22.0 0.00 0.11 0.07 1 1016.0
20260505201217 62 240 6.0 20.0 0.00 0.11 0.07 1 1015.8
20260505200716 62 299 6.0 18.0 0.00 0.11 0.07 1 1016.0
20260505200216 62 338 4.0 24.0 0.00 0.11 0.07 1 1015.8
20260505195716 61 11 13.0 24.0 0.00 0.11 0.07 1 1015.8
20260505195217 60 302 7.0 24.0 0.00 0.11 0.07 1 1016.0
20260505194713 60 261 7.0 24.0 0.00 0.11 0.07 1 1016.0
20260505194457 60 243 12.0 24.0 0.00 0.11 0.07 1 1016.0
20260505193952 60 279 12.0 23.0 0.00 0.11 0.07 1 1016.1
20260505193457 60 292 6.0 18.0 0.00 0.11 0.07 1 1016.1
20260505192717 60 0 10.0 18.0 0.00 0.11 0.07 1 1016.0
20260505192216 60 305 4.0 15.0 0.00 0.11 0.07 1 1016.1
20260505191714 59 21 6.0 23.0 0.00 0.11 0.07 1 1016.1
20260505191215 59 25 5.0 23.0 0.00 0.11 0.07 1 1016.0
20260505190714 59 266 5.0 23.0 0.00 0.11 0.07 1 1016.0
20260505190214 58 0 6.0 23.0 0.00 0.11 0.07 1 1015.8
20260505185715 58 275 9.0 21.0 0.00 0.11 0.07 1 1015.9
20260505185214 57 288 5.0 23.0 0.00 0.11 0.07 1 1015.9
20260505184714 57 56 11.0 23.0 0.00 0.11 0.07 1 1015.8
20260505184504 57 323 4.0 21.0 0.00 0.11 0.07 1 1015.8
20260505183715 57 92 8.0 19.0 0.00 0.11 0.07 1 1015.8
20260505183500 57 336 6.0 22.0 0.00 0.11 0.07 1 1015.9
20260505182713 57 262 7.0 24.0 0.00 0.11 0.07 1 1015.9
20260505182213 57 268 9.0 24.0 0.01 0.11 0.07 1 1015.9
20260505181713 57 27 7.0 19.0 0.01 0.11 0.07 1 1015.9
20260505181213 57 4 4.0 19.0 0.01 0.11 0.07 1 1015.9
20260505180713 57 34 3.0 19.0 0.01 0.11 0.07 1 1015.8
20260505180213 56 288 8.0 20.0 0.01 0.11 0.07 1 1015.6
20260505175714 56 103 5.0 20.0 0.01 0.10 0.07 1 1015.6
20260505175219 55 274 12.0 20.0 0.01 0.10 0.07 1 1015.6
20260505174712 55 207 9.0 19.0 0.01 0.10 0.07 1 1015.5
20260505174212 55 0 8.0 17.0 0.01 0.10 0.07 1 1015.5
20260505173712 55 338 3.0 18.0 0.01 0.10 0.07 1 1015.5
20260505173212 55 241 6.0 19.0 0.01 0.10 0.07 1 1015.6
20260505172712 54 275 8.0 19.0 0.01 0.10 0.07 1 1015.5
20260505172213 54 266 9.0 19.0 0.00 0.10 0.06 1 1015.5
20260505171712 54 258 8.0 19.0 0.00 0.10 0.06 1 1015.5
20260505171212 54 299 10.0 21.0 0.00 0.10 0.06 1 1015.4
20260505170713 54 0 6.0 21.0 0.00 0.10 0.06 1 1015.4
20260505170211 54 0 5.0 19.0 0.00 0.10 0.06 1 1015.3
20260505165954 54 44 5.0 19.0 0.00 0.10 0.06 1 1015.4
20260505165248 54 0 7.0 18.0 0.00 0.10 0.06 1 1015.5
20260505165236 54 68 4.0 18.0 0.00 0.10 0.06 1 1015.4
20260505164212 54 285 6.0 18.0 0.00 0.10 0.06 1 1015.4
20260505163712 54 261 8.0 18.0 0.00 0.10 0.06 1 1015.4
20260505163212 54 134 4.0 18.0 0.00 0.10 0.06 1 1015.4
20260505162710 54 288 4.0 16.0 0.00 0.10 0.06 1 1015.5
20260505162210 54 278 6.0 18.0 0.00 0.10 0.06 1 1015.4
20260505161711 53 250 5.0 18.0 0.00 0.10 0.06 1 1015.3
20260505161210 53 276 5.0 14.0 0.00 0.10 0.06 1 1015.2
20260505161000 53 56 6.0 15.0 0.00 0.10 0.06 1 1015.2
20260505160212 53 75 4.0 16.0 0.00 0.10 0.06 1 1015.2
20260505153211 53 319 6.0 21.0 0.00 0.10 0.06 1 1015.0
20260505152709 53 290 6.0 23.0 0.00 0.10 0.06 1 1015.0
20260505152210 53 269 10.0 23.0 0.00 0.10 0.06 1 1014.9
20260505151710 53 247 6.0 21.0 0.00 0.10 0.06 1 1014.9
20260505151209 53 255 10.0 21.0 0.00 0.10 0.06 1 1014.9
20260505150710 53 0 4.0 18.0 0.00 0.10 0.06 1 1014.9
20260505150210 53 313 8.0 18.0 0.00 0.10 0.06 1 1014.8
20260505140207 53 281 9.0 18.0 0.00 0.10 0.06 1 1014.5
20260505130206 52 259 7.0 17.0 0.00 0.10 0.06 1 1014.2
20260505124705 52 283 10.0 17.0 0.00 0.10 0.06 1 1014.2
20260505124206 52 281 5.0 17.0 0.00 0.10 0.06 1 1014.2
20260505123707 52 228 11.0 17.0 0.00 0.10 0.06 1 1014.2
20260505123203 52 118 6.0 20.0 0.00 0.10 0.06 1 1014.2
20260505122702 52 244 10.0 21.0 0.00 0.10 0.06 1 1014.2
20260505122205 52 247 6.0 21.0 0.00 0.10 0.06 1 1014.2
20260505121706 52 247 13.0 20.0 0.00 0.10 0.06 1 1014.2
20260505121205 51 272 4.0 21.0 0.00 0.10 0.06 1 1014.2
20260505120705 51 255 11.0 21.0 0.00 0.10 0.06 1 1014.2
20260505120204 51 279 8.0 20.0 0.00 0.10 0.06 1 1014.0
20260505115706 51 0 9.0 18.0 0.00 0.10 0.06 1 1014.2
20260505115205 51 7 8.0 19.0 0.00 0.10 0.06 1 1014.2
20260505114947 51 0 11.0 19.0 0.00 0.10 0.06 1 1014.2
20260505114204 51 255 7.0 17.0 0.00 0.10 0.06 1 1014.2
20260505113703 51 0 7.0 17.0 0.00 0.10 0.06 1 1014.0
20260505113203 51 251 9.0 17.0 0.00 0.10 0.06 1 1014.2
20260505112947 51 237 9.0 16.0 0.00 0.10 0.06 1 1014.4
20260505112451 51 251 6.0 16.0 0.00 0.10 0.06 1 1014.4
20260505111702 51 0 11.0 17.0 0.00 0.10 0.06 1 1014.3
20260505111203 51 252 9.0 17.0 0.00 0.10 0.06 1 1014.3
20260505110702 50 264 11.0 16.0 0.00 0.10 0.06 1 1014.2
20260505110203 50 268 7.0 21.0 0.00 0.10 0.06 1 1014.3
20260505102201 51 283 5.0 15.0 0.01 0.10 0.06 1 1014.3
20260505101702 51 255 6.0 15.0 0.01 0.10 0.06 1 1014.2
20260505101201 51 266 5.0 12.0 0.01 0.10 0.06 1 1014.3
20260505100700 51 0 5.0 15.0 0.01 0.10 0.06 1 1014.4
20260505100201 51 0 8.0 15.0 0.01 0.10 0.06 1 1014.5
20260505095702 51 255 5.0 13.0 0.01 0.09 0.06 1 1014.5
20260505095200 51 257 6.0 16.0 0.01 0.09 0.06 1 1014.4
20260505094944 51 258 6.0 16.0 0.01 0.09 0.06 1 1014.5